CW6641 Weather Reports


time (UTC)temp
C
wind
direction
speed
KPH
gust
KPH
rain 1hr
cm
rain 24hr
cm
rain mn
cm
humidity
%
barometer
mb
20260905204740 37 0.0 0.0 0.00 0.00 0.00 38 1011.2
20260905204236 37 0.0 0.0 0.00 0.00 0.00 39 1011.0
20260905203735 37 0.0 0.0 0.00 0.00 0.00 36 1011.3
20260905203231 37 0.0 0.0 0.00 0.00 0.00 38 1011.3
20260905202726 37 0.0 0.0 0.00 0.00 0.00 40 1011.4
20260905202221 37 0.0 0.0 0.00 0.00 0.00 38 1011.2
20260905201716 37 0.0 0.0 0.00 0.00 0.00 39 1011.5
20260905201211 37 0.0 0.0 0.00 0.00 0.00 38 1011.3
20260905200706 37 0.0 0.0 0.00 0.00 0.00 38 1011.4
20260905200202 37 0.0 0.0 0.00 0.00 0.00 41 1011.6
20260905195700 36 0.0 0.0 0.00 0.00 0.00 40 1011.7
20260905195154 36 0.0 0.0 0.00 0.00 0.00 39 1011.6
20260905194650 36 0.0 0.0 0.00 0.00 0.00 43 1011.6
20260905194144 36 0.0 0.0 0.00 0.00 0.00 44 1011.9
20260905193638 37 0.0 0.0 0.00 0.00 0.00 42 1012.3
20260905193133 37 0.0 0.0 0.00 0.00 0.00 41 1012.2
20260905192628 37 0.0 0.0 0.00 0.00 0.00 42 1012.0
20260905192125 37 0.0 0.0 0.00 0.00 0.00 42 1012.0
20260905191624 36 0.0 0.0 0.00 0.00 0.00 43 1012.0
20260905191122 36 0.0 0.0 0.00 0.00 0.00 42 1012.3
20260905190621 36 0.0 0.0 0.00 0.00 0.00 41 1012.3
20260905190121 36 0.0 0.0 0.00 0.00 0.00 45 1012.2
20260905185620 37 0.0 0.0 0.00 0.00 0.00 44 1012.5
20260905185114 36 0.0 0.0 0.00 0.00 0.00 45 1012.4
20260905184609 36 0.0 0.0 0.00 0.00 0.00 46 1012.7
20260905184108 36 0.0 0.0 0.00 0.00 0.00 46 1012.3
20260905183607 36 0.0 0.0 0.00 0.00 0.00 45 1012.6
20260905183103 36 0.0 0.0 0.00 0.00 0.00 46 1012.6
20260905182602 35 0.0 0.0 0.00 0.00 0.00 45 1012.7
20260905182056 35 0.0 0.0 0.00 0.00 0.00 46 1012.9
20260905181551 35 0.0 0.0 0.00 0.00 0.00 47 1012.8
20260905181050 35 0.0 0.0 0.00 0.00 0.00 46 1012.7
20260905180545 35 0.0 0.0 0.00 0.00 0.00 47 1012.9
20260905180041 35 0.0 0.0 0.00 0.00 0.00 49 1013.1
20260905175539 35 0.0 0.0 0.00 0.00 0.00 50 1013.1
20260905175035 35 0.0 0.0 0.00 0.00 0.00 49 1013.0
20260905174531 35 0.0 0.0 0.00 0.00 0.00 51 1013.0
20260905174026 35 0.0 0.0 0.00 0.00 0.00 49 1013.3
20260905173523 35 0.0 0.0 0.00 0.00 0.00 50 1013.2
20260905173018 35 0.0 0.0 0.00 0.00 0.00 51 1013.5
20260905172516 35 0.0 0.0 0.00 0.00 0.00 50 1013.6
20260905172012 35 0.0 0.0 0.00 0.00 0.00 51 1013.6
20260905171508 35 0.0 0.0 0.00 0.00 0.00 50 1013.5
20260905171003 35 0.0 0.0 0.00 0.00 0.00 52 1013.5
20260905170500 35 0.0 0.0 0.00 0.00 0.00 52 1013.5
20260905165954 34 0.0 0.0 0.00 0.00 0.00 54 1013.8
20260905165449 34 0.0 0.0 0.00 0.00 0.00 54 1013.8
20260905164943 33 0.0 0.0 0.00 0.00 0.00 56 1014.0
20260905164438 33 0.0 0.0 0.00 0.00 0.00 54 1013.9
20260905163933 33 0.0 0.0 0.00 0.00 0.00 57 1014.1
20260905163429 33 0.0 0.0 0.00 0.00 0.00 58 1014.3
20260905162925 33 0.0 0.0 0.00 0.00 0.00 58 1014.3
20260905162420 33 0.0 0.0 0.00 0.00 0.00 59 1014.2
20260905161915 32 0.0 0.0 0.00 0.00 0.00 59 1014.4
20260905161414 32 0.0 0.0 0.00 0.00 0.00 60 1014.4
20260905160912 32 0.0 0.0 0.00 0.00 0.00 61 1014.8
20260905160406 32 0.0 0.0 0.00 0.00 0.00 60 1014.6
20260905155900 32 0.0 0.0 0.00 0.00 0.00 61 1014.6
20260905155355 32 0.0 0.0 0.00 0.00 0.00 61 1014.6
20260905154854 32 0.0 0.0 0.00 0.00 0.00 62 1014.6
20260905154350 32 0.0 0.0 0.00 0.00 0.00 63 1014.4
20260905153845 32 0.0 0.0 0.00 0.00 0.00 62 1014.6
20260905153341 31 0.0 0.0 0.00 0.00 0.00 63 1014.5
20260905152841 31 0.0 0.0 0.00 0.00 0.00 64 1014.6
20260905152340 31 0.0 0.0 0.00 0.00 0.00 64 1014.6
20260905151835 31 0.0 0.0 0.00 0.00 0.00 66 1014.6
20260905151331 31 0.0 0.0 0.00 0.00 0.00 65 1014.4
20260905150825 31 0.0 0.0 0.00 0.00 0.00 66 1014.6
20260905150319 30 0.0 0.0 0.00 0.00 0.00 67 1014.5
20260905145816 30 0.0 0.0 0.00 0.00 0.00 66 1014.4
20260905145311 30 0.0 0.0 0.00 0.00 0.00 70 1014.5
20260905144809 30 0.0 0.0 0.00 0.00 0.00 70 1014.5
20260905144306 30 0.0 0.0 0.00 0.00 0.00 69 1014.5
20260905143804 30 0.0 0.0 0.00 0.00 0.00 71 1014.4
20260905143259 30 0.0 0.0 0.00 0.00 0.00 72 1014.5
20260905142757 29 0.0 0.0 0.00 0.00 0.00 73 1014.7
20260905142252 29 0.0 0.0 0.00 0.00 0.00 73 1014.7
20260905141748 29 0.0 0.0 0.00 0.00 0.00 76 1014.7
20260905141243 28 0.0 0.0 0.00 0.00 0.00 75 1014.7
20260905140739 28 0.0 0.0 0.00 0.00 0.00 76 1015.0
20260905140233 28 0.0 0.0 0.00 0.00 0.00 78 1014.8
20260905135732 28 0.0 0.0 0.00 0.00 0.00 78 1014.7
20260905135228 27 0.0 0.0 0.00 0.00 0.00 80 1014.6
20260905134727 27 0.0 0.0 0.00 0.00 0.00 80 1014.6
20260905134227 27 0.0 0.0 0.00 0.00 0.00 81 1014.9
20260905133722 27 0.0 0.0 0.00 0.00 0.00 81 1014.8
20260905133217 26 0.0 0.0 0.00 0.00 0.00 83 1014.8
20260905132716 26 0.0 0.0 0.00 0.00 0.00 83 1014.9
20260905132212 26 0.0 0.0 0.00 0.00 0.00 84 1014.7
20260905131706 26 0.0 0.0 0.00 0.00 0.00 84 1015.0
20260905131202 26 0.0 0.0 0.00 0.00 0.00 84 1015.0
20260905130656 26 0.0 0.0 0.00 0.00 0.00 85 1015.0
20260905130155 26 0.0 0.0 0.00 0.00 0.00 85 1015.1
20260905125650 25 0.0 0.0 0.00 0.00 0.00 85 1015.0
20260905125146 25 0.0 0.0 0.00 0.00 0.00 86 1015.0
20260905124642 25 0.0 0.0 0.00 0.00 0.00 85 1015.0
20260905124138 25 0.0 0.0 0.00 0.00 0.00 85 1014.7
20260905123633 25 0.0 0.0 0.00 0.00 0.00 85 1014.8
20260905123130 25 0.0 0.0 0.00 0.00 0.00 85 1014.7
20260905122629 25 0.0 0.0 0.00 0.00 0.00 85 1014.8
20260905122125 25 0.0 0.0 0.00 0.00 0.00 85 1014.7
20260905121619 25 0.0 0.0 0.00 0.00 0.00 85 1014.9
20260905121114 25 0.0 0.0 0.00 0.00 0.00 84 1014.9
20260905120608 25 0.0 0.0 0.00 0.00 0.00 84 1014.6
20260905120103 25 0.0 0.0 0.00 0.00 0.00 84 1014.8
20260905115602 25 0.0 0.0 0.00 0.00 0.00 84 1014.7
20260905115057 25 0.0 0.0 0.00 0.00 0.00 85 1014.5
20260905114556 25 0.0 0.0 0.00 0.00 0.00 84 1014.7
20260905114055 25 0.0 0.0 0.00 0.00 0.00 84 1014.3
20260905113550 25 0.0 0.0 0.00 0.00 0.00 83 1014.3
20260905113045 25 0.0 0.0 0.00 0.00 0.00 83 1014.3
20260905112541 25 0.0 0.0 0.00 0.00 0.00 83 1014.2
20260905112036 25 0.0 0.0 0.00 0.00 0.00 83 1014.0
20260905111531 25 0.0 0.0 0.00 0.00 0.00 83 1014.0
20260905111030 25 0.0 0.0 0.00 0.00 0.00 83 1014.1
20260905110529 25 0.0 0.0 0.00 0.00 0.00 83 1013.9
20260905110024 25 0.0 0.0 0.00 0.00 0.00 83 1014.2
20260905105519 25 0.0 0.0 0.00 0.00 0.00 83 1014.0
20260905105013 25 0.0 0.0 0.00 0.00 0.00 83 1013.9
20260905104509 25 0.0 0.0 0.00 0.00 0.00 83 1013.7
20260905104008 25 0.0 0.0 0.00 0.00 0.00 83 1013.7
20260905103504 25 0.0 0.0 0.00 0.00 0.00 83 1013.8
20260905103000 25 0.0 0.0 0.00 0.00 0.00 83 1013.5
20260905102455 25 0.0 0.0 0.00 0.00 0.00 83 1014.0
20260905101951 25 0.0 0.0 0.00 0.00 0.00 83 1013.7
20260905101450 25 0.0 0.0 0.00 0.00 0.00 82 1013.8
20260905100949 25 0.0 0.0 0.00 0.00 0.00 82 1013.8
20260905100445 25 0.0 0.0 0.00 0.00 0.00 82 1013.8
20260905095943 25 0.0 0.0 0.00 0.00 0.00 82 1013.9
20260905095438 25 0.0 0.0 0.00 0.00 0.00 82 1013.8
20260905094933 25 0.0 0.0 0.00 0.00 0.00 82 1013.9
20260905094429 25 0.0 0.0 0.00 0.00 0.00 82 1013.6
20260905093927 25 0.0 0.0 0.00 0.00 0.00 82 1013.7
20260905093423 25 0.0 0.0 0.00 0.00 0.00 82 1013.7
20260905092919 25 0.0 0.0 0.00 0.00 0.00 82 1013.4
20260905092414 25 0.0 0.0 0.00 0.00 0.00 82 1013.3
20260905091908 25 0.0 0.0 0.00 0.00 0.00 81 1013.6
20260905091403 25 0.0 0.0 0.00 0.00 0.00 81 1013.5
20260905090902 25 0.0 0.0 0.00 0.00 0.00 81 1013.4
20260905090358 25 0.0 0.0 0.00 0.00 0.00 81 1013.3
20260905085856 25 0.0 0.0 0.00 0.00 0.00 81 1013.3
20260905085351 25 0.0 0.0 0.00 0.00 0.00 81 1013.3
20260905084847 25 0.0 0.0 0.00 0.00 0.00 81 1013.4
20260905084340 26 0.0 0.0 0.00 0.00 0.00 81 1013.3
20260905083835 26 0.0 0.0 0.00 0.00 0.00 81 1013.4
20260905083331 26 0.0 0.0 0.00 0.00 0.00 81 1013.3
20260905082827 26 0.0 0.0 0.00 0.00 0.00 81 1013.3
20260905082322 26 0.0 0.0 0.00 0.00 0.00 81 1013.3
20260905081817 26 0.0 0.0 0.00 0.00 0.00 81 1013.6
20260905081312 26 0.0 0.0 0.00 0.00 0.00 80 1013.6
20260905080811 26 0.0 0.0 0.00 0.00 0.00 80 1013.6
20260905080306 26 0.0 0.0 0.00 0.00 0.00 80 1013.7
20260905075805 26 0.0 0.0 0.00 0.00 0.00 79 1013.7
20260905075306 26 0.0 0.0 0.00 0.00 0.00 79 1013.6
20260905074803 26 0.0 0.0 0.00 0.00 0.00 79 1013.6
20260905074300 26 0.0 0.0 0.00 0.00 0.00 79 1013.5
20260905073754 26 0.0 0.0 0.00 0.00 0.00 79 1013.8
20260905073249 26 0.0 0.0 0.00 0.00 0.00 79 1013.7
20260905072744 26 0.0 0.0 0.00 0.00 0.00 79 1013.9
20260905072239 26 0.0 0.0 0.00 0.00 0.00 79 1013.9
20260905071736 26 0.0 0.0 0.00 0.00 0.00 79 1013.8
20260905071231 26 0.0 0.0 0.00 0.00 0.00 79 1013.7
20260905070726 26 0.0 0.0 0.00 0.00 0.00 78 1013.9
20260905070223 26 0.0 0.0 0.00 0.00 0.00 78 1013.8
20260905065720 26 0.0 0.0 0.00 0.00 0.00 78 1013.7
20260905065215 26 0.0 0.0 0.00 0.00 0.00 78 1013.6
20260905064711 27 0.0 0.0 0.00 0.00 0.00 78 1013.7
20260905064207 27 0.0 0.0 0.00 0.00 0.00 77 1014.0
20260905063704 27 0.0 0.0 0.00 0.00 0.00 77 1013.8
20260905063201 27 0.0 0.0 0.00 0.00 0.00 77 1013.9
20260905062657 27 0.0 0.0 0.00 0.00 0.00 77 1013.9
20260905062156 27 0.0 0.0 0.00 0.00 0.00 77 1014.0
20260905061655 27 0.0 0.0 0.00 0.00 0.00 76 1014.1
20260905061150 27 0.0 0.0 0.00 0.00 0.00 77 1013.9
20260905060646 27 0.0 0.0 0.00 0.00 0.00 77 1014.0
20260905060142 27 0.0 0.0 0.00 0.00 0.00 77 1014.1
20260905055641 27 0.0 0.0 0.00 0.00 0.00 77 1013.9
20260905055136 27 0.0 0.0 0.00 0.00 0.00 77 1013.9
20260905054632 27 0.0 0.0 0.00 0.00 0.00 77 1013.9
20260905054127 27 0.0 0.0 0.00 0.00 0.00 77 1014.1
20260905053627 27 0.0 0.0 0.00 0.00 0.00 77 1014.0
20260905053122 27 0.0 0.0 0.00 0.00 0.00 78 1014.2
20260905052621 27 0.0 0.0 0.00 0.00 0.00 78 1014.4
20260905052115 27 0.0 0.0 0.00 0.00 0.00 77 1014.0
20260905051611 27 0.0 0.0 0.00 0.00 0.00 77 1014.4
20260905051102 27 0.0 0.0 0.00 0.00 0.00 77 1014.2
20260905050557 27 0.0 0.0 0.00 0.00 0.00 78 1014.1
20260905050055 27 0.0 0.0 0.00 0.00 0.00 78 1014.3
20260905045554 27 0.0 0.0 0.00 0.00 0.00 77 1014.1
20260905045050 27 0.0 0.0 0.00 0.00 0.00 76 1014.3
20260905044550 27 0.0 0.0 0.00 0.00 0.00 76 1014.0
20260905044044 27 0.0 0.0 0.00 0.00 0.00 76 1014.1
20260905043544 27 0.0 0.0 0.00 0.00 0.00 76 1014.0
20260905043039 28 0.0 0.0 0.00 0.00 0.00 76 1014.0
20260905042538 28 0.0 0.0 0.00 0.00 0.00 75 1013.9
20260905042033 28 0.0 0.0 0.00 0.00 0.00 75 1014.0
20260905041528 28 0.0 0.0 0.00 0.00 0.00 74 1014.2
20260905041024 28 0.0 0.0 0.00 0.00 0.00 74 1014.1
20260905040523 28 0.0 0.0 0.00 0.00 0.00 74 1014.4
20260905040022 28 0.0 0.0 0.00 0.00 0.00 74 1014.2
20260905035517 28 0.0 0.0 0.00 0.00 0.00 74 1014.1
20260905035014 28 0.0 0.0 0.00 0.00 0.00 73 1014.2
20260905034509 28 0.0 0.0 0.00 0.00 0.00 73 1014.1
20260905034008 28 0.0 0.0 0.00 0.00 0.00 73 1014.0
20260905033503 28 0.0 0.0 0.00 0.00 0.00 73 1014.3
20260905032959 28 0.0 0.0 0.00 0.00 0.00 73 1014.3
20260905032454 28 0.0 0.0 0.00 0.00 0.00 73 1014.3
20260905031948 28 0.0 0.0 0.00 0.00 0.00 72 1014.3
20260905031445 28 0.0 0.0 0.00 0.00 0.00 73 1014.4
20260905030939 29 0.0 0.0 0.00 0.00 0.00 72 1014.5
20260905030435 29 0.0 0.0 0.00 0.00 0.00 72 1014.4
20260905025933 29 0.0 0.0 0.00 0.00 0.00 72 1014.3
20260905025429 29 0.0 0.0 0.00 0.00 0.00 72 1014.1
20260905024925 29 0.0 0.0 0.00 0.00 0.00 72 1014.4
20260905024420 29 0.0 0.0 0.00 0.00 0.00 71 1014.2
20260905023915 29 0.0 0.0 0.00 0.00 0.00 71 1014.4
20260905023411 29 0.0 0.0 0.00 0.00 0.00 71 1014.4
20260905022909 30 0.0 0.0 0.00 0.00 0.00 70 1014.3
20260905022405 30 0.0 0.0 0.00 0.00 0.00 70 1014.1
20260905021900 30 0.0 0.0 0.00 0.00 0.00 69 1014.2
20260905021354 30 0.0 0.0 0.00 0.00 0.00 68 1014.1
20260905020850 30 0.0 0.0 0.00 0.00 0.00 68 1014.0
20260905020344 30 0.0 0.0 0.00 0.00 0.00 68 1014.0
20260905015844 30 0.0 0.0 0.00 0.00 0.00 68 1013.9
20260905015343 30 0.0 0.0 0.00 0.00 0.00 67 1013.9
20260905014842 30 0.0 0.0 0.00 0.00 0.00 67 1014.0
20260905014338 30 0.0 0.0 0.00 0.00 0.00 67 1013.8
20260905013833 30 0.0 0.0 0.00 0.00 0.00 67 1013.8
20260905013329 30 0.0 0.0 0.00 0.00 0.00 67 1013.7
20260905012824 30 0.0 0.0 0.00 0.00 0.00 66 1013.7
20260905012320 30 0.0 0.0 0.00 0.00 0.00 66 1013.8
20260905011816 31 0.0 0.0 0.00 0.00 0.00 65 1013.7
20260905011312 31 0.0 0.0 0.00 0.00 0.00 65 1013.7
20260905010807 31 0.0 0.0 0.00 0.00 0.00 65 1013.7
20260905010301 31 0.0 0.0 0.00 0.00 0.00 64 1013.6
20260905005758 31 0.0 0.0 0.00 0.00 0.00 64 1013.5
20260905005259 31 0.0 0.0 0.00 0.00 0.00 63 1013.6
20260905004758 31 0.0 0.0 0.00 0.00 0.00 63 1013.5
20260905004253 32 0.0 0.0 0.00 0.00 0.00 62 1013.4
20260905003748 32 0.0 0.0 0.00 0.00 0.00 62 1013.4
20260905003244 32 0.0 0.0 0.00 0.00 0.00 61 1013.4
20260905002740 32 0.0 0.0 0.00 0.00 0.00 60 1013.2
20260905002239 32 0.0 0.0 0.00 0.00 0.00 60 1013.5
20260905001734 33 0.0 0.0 0.00 0.00 0.00 59 1013.3
20260905001233 33 0.0 0.0 0.00 0.00 0.00 58 1013.5
20260905000729 33 0.0 0.0 0.00 0.00 0.00 57 1013.4
20260905000226 33 0.0 0.0 0.00 0.00 0.00 59 1013.6
20260904235720 33 0.0 0.0 0.00 0.00 0.00 59 1013.3
20260904235215 33 0.0 0.0 0.00 0.00 0.00 57 1013.3
20260904234709 34 0.0 0.0 0.00 0.00 0.00 56 1013.4
20260904234205 34 0.0 0.0 0.00 0.00 0.00 54 1013.3
20260904233701 35 0.0 0.0 0.00 0.00 0.00 54 1013.4
20260904233156 35 0.0 0.0 0.00 0.00 0.00 53 1013.4
20260904232653 35 0.0 0.0 0.00 0.00 0.00 52 1013.2
20260904232149 35 0.0 0.0 0.00 0.00 0.00 52 1013.2
20260904231644 35 0.0 0.0 0.00 0.00 0.00 51 1013.2
20260904231139 35 0.0 0.0 0.00 0.00 0.00 51 1013.3
20260904230638 35 0.0 0.0 0.00 0.00 0.00 50 1013.2
20260904230134 36 0.0 0.0 0.00 0.00 0.00 48 1013.3
20260904225632 36 0.0 0.0 0.00 0.00 0.00 46 1013.4
20260904225127 36 0.0 0.0 0.00 0.00 0.00 46 1013.0
20260904224621 36 0.0 0.0 0.00 0.00 0.00 46 1013.0
20260904224116 36 0.0 0.0 0.00 0.00 0.00 45 1013.1
20260904223615 36 0.0 0.0 0.00 0.00 0.00 45 1012.8
20260904223110 36 0.0 0.0 0.00 0.00 0.00 45 1012.9
20260904222606 36 0.0 0.0 0.00 0.00 0.00 44 1012.9
20260904222056 36 0.0 0.0 0.00 0.00 0.00 44 1012.7
20260904221556 36 0.0 0.0 0.00 0.00 0.00 44 1013.1
20260904221056 36 0.0 0.0 0.00 0.00 0.00 43 1013.1
20260904220556 36 0.0 0.0 0.00 0.00 0.00 43 1013.1
20260904220051 36 0.0 0.0 0.00 0.00 0.00 43 1012.9
20260904215546 36 0.0 0.0 0.00 0.00 0.00 44 1013.0
20260904215042 36 0.0 0.0 0.00 0.00 0.00 44 1013.3
20260904214537 36 0.0 0.0 0.00 0.00 0.00 44 1013.4
20260904214033 36 0.0 0.0 0.00 0.00 0.00 44 1013.2
20260904213531 36 0.0 0.0 0.00 0.00 0.00 44 1013.4
20260904213028 36 0.0 0.0 0.00 0.00 0.00 45 1013.4
20260904212526 36 0.0 0.0 0.00 0.00 0.00 45 1013.5
20260904212022 36 0.0 0.0 0.00 0.00 0.00 44 1013.4
20260904211516 36 0.0 0.0 0.00 0.00 0.00 44 1013.5
20260904211012 36 0.0 0.0 0.00 0.00 0.00 45 1013.7
20260904210511 36 0.0 0.0 0.00 0.00 0.00 45 1013.6
20260904210007 36 0.0 0.0 0.00 0.00 0.00 45 1013.8
20260904205502 36 0.0 0.0 0.00 0.00 0.00 45 1013.7